Back to catalog

DMSP 5D-2 F13 DEB

AliveSSO
NORAD 40409·DEBRIS·🇺🇸 United States

Launched Mar 24, 1995 from Vandenberg Space Force Base

Loading…

Next Passes (next 24 hours)

TLE

FreshSource: Space-Track

Epoch: Sep 13, 2026, 08:04 UTC

1 40409U 95015W   26256.33667695  .00001651  00000-0  69116-3 0  9992
2 40409  98.7334 281.2745 0004424 145.5949 214.5518 14.27420475598333

Track DMSP 5D-2 F13 DEB in real time with AllMySat

Download on the App Store